Pontiac, IL

3:08 PM CDT on May 23, 2017 (GMT -0500)
Pontiac Municipal

Weather History for KPNT - November, 2013

Change the Weather History Date:

Friday, November 15, 2013

  Actual Average Record
Temperature  
Mean Temperature 42 °F -  
Max Temperature 48 °F 49 °F 75 °F (1955)
Min Temperature 37 °F 32 °F 10 °F (1959)
Degree Days  
Heating Degree Days 22    
Moisture  
Dew Point 34 °F    
Average Humidity 71    
Maximum Humidity 93    
Minimum Humidity 50    
Precipitation  
Precipitation 0.00 in - - ()
Sea Level Pressure  
Sea Level Pressure 29.99 in    
Wind  
Wind Speed 11 mph (South)    
Max Wind Speed 20 mph    
Max Gust Speed 21 mph    
Visibility 10 miles    
Events Rain    
Averages and records for this station are not official NWS values.
T = Trace of Precipitation, MM = Missing Value Source: NWS Daily Summary

Daily Weather History Graph

Daily Weather History Graph

Search for Another Location

Airport or City:

Trip Planner

Search our weather history database for the weather conditions in past years. The results will help you decide how hot, cold, wet, or windy it might be!

Date:

Astronomy

Nov. 15, 2013 Rise Set
Actual Time 6:42 AM CST 4:35 PM CST
Civil Twilight 6:12 AM CST 5:05 PM CST
Nautical Twilight 5:39 AM CST 5:38 PM CST
Astronomical Twilight 5:06 AM CST 6:10 PM CST
Moon 3:33 PM CST (11/15) 4:37 AM CST (11/15)
Length of Visible Light 10h 52m
Length of Day
9h 53m
Waxing Gibbous, 96% of the Moon is Illuminated
Nov 15
Waxing Gibbous
Nov 17
Full
Nov 25
Last Quarter
Dec 2
New
Dec 9
First Quarter

Hourly Weather History & Observations

Time (CST) Temp. Windchill Dew Point Humidity Pressure Visibility Wind Dir Wind Speed Gust Speed Precip Events Conditions
12:15 AM 42.8 °F 36.2 °F 28.4 °F 57% 30.00 in 10.0 mi SSW 12.7 mph - N/A   Clear
12:55 AM 42.8 °F 35.8 °F 28.4 °F 57% 30.00 in 10.0 mi SSW 13.8 mph - N/A   Clear
1:15 AM 42.8 °F 36.2 °F 28.4 °F 57% 29.99 in 10.0 mi SSW 12.7 mph - N/A   Clear
1:35 AM 41.0 °F 34.7 °F 30.2 °F 65% 30.00 in 10.0 mi SSW 10.4 mph - N/A   Clear
1:55 AM 41.0 °F 34.3 °F 30.2 °F 65% 30.00 in 10.0 mi SSW 11.5 mph - N/A   Clear
2:15 AM 42.8 °F 37.0 °F 28.4 °F 57% 30.00 in 10.0 mi SSW 10.4 mph - N/A   Clear
2:35 AM 42.8 °F 37.0 °F 28.4 °F 57% 30.00 in 10.0 mi SSW 10.4 mph - N/A   Clear
2:55 AM 39.2 °F 33.0 °F 28.4 °F 65% 29.99 in 10.0 mi SSW 9.2 mph - N/A   Clear
3:15 AM 39.2 °F 33.0 °F 28.4 °F 65% 29.99 in 10.0 mi SSW 9.2 mph - N/A   Clear
3:35 AM 39.2 °F 33.0 °F 28.4 °F 65% 29.99 in 10.0 mi South 9.2 mph - N/A   Clear
3:55 AM 39.2 °F 32.5 °F 28.4 °F 65% 29.98 in 10.0 mi South 10.4 mph - N/A   Clear
4:15 AM 39.2 °F 32.5 °F 28.4 °F 65% 29.98 in 10.0 mi SSW 10.4 mph - N/A   Clear
4:35 AM 39.2 °F 32.5 °F 28.4 °F 65% 29.98 in 10.0 mi SSW 10.4 mph - N/A   Clear
4:55 AM 37.4 °F 30.8 °F 28.4 °F 70% 29.98 in 10.0 mi South 9.2 mph - N/A   Clear
5:15 AM 37.4 °F 30.3 °F 28.4 °F 70% 29.98 in 10.0 mi SSW 10.4 mph - N/A   Clear
5:35 AM 39.2 °F 32.0 °F 28.4 °F 65% 29.98 in 10.0 mi SSW 11.5 mph - N/A   Clear
5:55 AM 39.2 °F 32.5 °F 28.4 °F 65% 29.99 in 10.0 mi SSW 10.4 mph - N/A   Clear
6:15 AM 39.2 °F 33.0 °F 28.4 °F 65% 30.00 in 10.0 mi SSW 9.2 mph - N/A   Clear
6:35 AM 39.2 °F 33.0 °F 28.4 °F 65% 30.00 in 10.0 mi SSW 9.2 mph - N/A   Clear
6:55 AM 39.2 °F 33.6 °F 28.4 °F 65% 30.01 in 10.0 mi SSW 8.1 mph - N/A   Scattered Clouds
7:15 AM 39.2 °F 33.6 °F 28.4 °F 65% 30.00 in 10.0 mi SSW 8.1 mph - N/A   Clear
7:35 AM 41.0 °F 35.2 °F 28.4 °F 61% 30.01 in 10.0 mi SSW 9.2 mph - N/A   Clear
7:55 AM 42.8 °F 38.0 °F 30.2 °F 61% 30.01 in 10.0 mi SSW 8.1 mph - N/A   Mostly Cloudy
8:15 AM 42.8 °F 36.6 °F 28.4 °F 57% 30.01 in 10.0 mi SSW 11.5 mph - N/A   Overcast
8:35 AM 42.8 °F 37.0 °F 30.2 °F 61% 30.01 in 10.0 mi SW 10.4 mph - N/A   Overcast
8:55 AM 44.6 °F 39.2 °F 30.2 °F 57% 30.01 in 10.0 mi SSW 10.4 mph - N/A   Overcast
9:15 AM 44.6 °F 38.1 °F 30.2 °F 57% 30.01 in 10.0 mi SSW 13.8 mph 18.4 mph N/A   Overcast
9:35 AM 46.4 °F 40.7 °F 30.2 °F 53% 30.01 in 10.0 mi SSW 12.7 mph 18.4 mph N/A   Overcast
9:55 AM 46.4 °F 40.4 °F 30.2 °F 53% 30.01 in 10.0 mi SSW 13.8 mph - N/A   Overcast
10:15 AM 48.2 °F - 30.2 °F 50% 30.01 in 10.0 mi SSW 15.0 mph 20.7 mph N/A   Scattered Clouds
10:35 AM 48.2 °F - 32.0 °F 54% 30.01 in 10.0 mi SSW 12.7 mph - N/A   Scattered Clouds
10:55 AM 48.2 °F - 30.2 °F 50% 30.01 in 10.0 mi SW 13.8 mph - N/A   Mostly Cloudy
11:15 AM 48.2 °F - 32.0 °F 54% 30.00 in 10.0 mi SW 10.4 mph - N/A   Overcast
11:35 AM 48.2 °F - 32.0 °F 54% 30.00 in 10.0 mi SW 11.5 mph - N/A   Overcast
11:55 AM 44.6 °F 38.4 °F 35.6 °F 71% 30.00 in 7.0 mi SSW 12.7 mph - N/A   Drizzle
12:15 PM 46.4 °F 41.5 °F 35.6 °F 66% 30.00 in 10.0 mi SSW 10.4 mph - N/A   Overcast
12:35 PM 46.4 °F 39.0 °F 35.6 °F 66% 29.99 in 10.0 mi SSW 19.6 mph - N/A   Overcast
12:55 PM 46.4 °F 41.1 °F 37.4 °F 71% 29.99 in 10.0 mi SSW 11.5 mph - N/A Rain Light Rain
1:15 PM 46.4 °F 41.5 °F 39.2 °F 76% 29.99 in 10.0 mi SSW 10.4 mph - N/A   Overcast
1:35 PM 46.4 °F 41.1 °F 39.2 °F 76% 29.99 in 10.0 mi SSW 11.5 mph - N/A   Overcast
1:55 PM 46.4 °F 42.4 °F 39.2 °F 76% 29.98 in 10.0 mi SSW 8.1 mph - N/A   Overcast
2:15 PM 46.4 °F 42.4 °F 39.2 °F 76% 29.98 in 10.0 mi South 8.1 mph - N/A   Overcast
2:35 PM 46.4 °F 41.9 °F 39.2 °F 76% 29.98 in 10.0 mi SSW 9.2 mph - N/A   Overcast
2:55 PM 46.4 °F 41.5 °F 39.2 °F 76% 29.97 in 10.0 mi South 10.4 mph - N/A   Overcast
3:15 PM 46.4 °F 41.5 °F 39.2 °F 76% 29.97 in 10.0 mi SSW 10.4 mph - N/A   Overcast
3:35 PM 48.2 °F - 39.2 °F 71% 29.96 in 10.0 mi South 11.5 mph - N/A   Mostly Cloudy
3:55 PM 48.2 °F - 39.2 °F 71% 29.97 in 10.0 mi South 8.1 mph - N/A   Mostly Cloudy
4:15 PM 46.4 °F 42.9 °F 39.2 °F 76% 29.97 in 10.0 mi South 6.9 mph - N/A   Overcast
4:35 PM 46.4 °F 42.9 °F 39.2 °F 76% 29.97 in 10.0 mi South 6.9 mph - N/A   Overcast
4:55 PM 46.4 °F 43.5 °F 39.2 °F 76% 29.97 in 10.0 mi South 5.8 mph - N/A   Overcast
5:15 PM 46.4 °F 43.5 °F 39.2 °F 76% 29.98 in 10.0 mi SSE 5.8 mph - N/A   Overcast
5:35 PM 44.6 °F 41.4 °F 39.2 °F 81% 29.98 in 10.0 mi SSE 5.8 mph - N/A   Overcast
5:55 PM 44.6 °F 41.4 °F 39.2 °F 81% 29.98 in 10.0 mi SSE 5.8 mph - N/A   Overcast
6:15 PM 44.6 °F 40.7 °F 39.2 °F 81% 29.98 in 10.0 mi SE 6.9 mph - N/A   Overcast
6:35 PM 42.8 °F 38.6 °F 37.4 °F 81% 29.98 in 10.0 mi SE 6.9 mph - N/A   Scattered Clouds
6:55 PM 39.2 °F 34.2 °F 35.6 °F 87% 29.98 in 10.0 mi ESE 6.9 mph - N/A   Clear
7:15 PM 39.2 °F 33.6 °F 37.4 °F 93% 29.97 in 10.0 mi ESE 8.1 mph - N/A   Unknown
7:35 PM 39.2 °F 34.2 °F 35.6 °F 87% 29.97 in 10.0 mi ESE 6.9 mph - N/A   Unknown
7:55 PM 37.4 °F 31.4 °F 35.6 °F 93% 29.98 in 10.0 mi SE 8.1 mph - N/A   Unknown
8:15 PM 37.4 °F 31.4 °F 35.6 °F 93% 29.98 in 10.0 mi ESE 8.1 mph - N/A   Clear
8:35 PM 37.4 °F 31.4 °F 33.8 °F 87% 29.98 in 10.0 mi SE 8.1 mph - N/A   Clear
8:55 PM 37.4 °F 30.8 °F 35.6 °F 93% 29.97 in 10.0 mi SE 9.2 mph - N/A   Clear
9:15 PM 39.2 °F 33.6 °F 35.6 °F 87% 29.97 in 10.0 mi SSE 8.1 mph - N/A   Clear
9:35 PM 39.2 °F 33.6 °F 35.6 °F 87% 29.96 in 10.0 mi SSE 8.1 mph - N/A   Clear
9:55 PM 42.8 °F 36.6 °F 35.6 °F 76% 29.95 in 10.0 mi SSE 11.5 mph - N/A   Clear
10:15 PM 42.8 °F 38.0 °F 37.4 °F 81% 29.94 in 10.0 mi SE 8.1 mph - N/A   Clear
10:35 PM 41.0 °F 34.3 °F 37.4 °F 87% 29.94 in 10.0 mi SSE 11.5 mph - N/A   Clear
10:55 PM 42.8 °F 35.8 °F 37.4 °F 81% 29.95 in 10.0 mi SSE 13.8 mph - N/A   Clear
11:15 PM 42.8 °F 35.8 °F 37.4 °F 81% 29.96 in 10.0 mi South 13.8 mph - N/A   Clear
11:35 PM 42.8 °F 36.2 °F 37.4 °F 81% 29.96 in 10.0 mi South 12.7 mph - N/A   Clear
11:55 PM 41.0 °F 34.3 °F 37.4 °F 87% 29.95 in 10.0 mi SSE 11.5 mph - N/A   Clear